[[{"header":{"parameterUnit":"m.s-1","parameterCategory":1,"la1":30.2991,"la2":30.254,"lo1":-89.0895,"lo2":-89.0444,"dy":0.0017,"dx":0.0017,"nx":28,"ny":28,"refTime":"2026-01-09T09:00:00:Z","depth":0,"parameterNumber":2,"parameterNumberName":"U-component_of_WINDS"},"data":[0,0,0,0,0,0,0,0,0,0,0,0,0,0,0,0,0,0,0,0,0,0,0,0,0,0,0,0,0,0,0,0,0,0,0,0,0,0,0,0,0,0,0,0,0,0,0,0,0,0,0,0,0,0,0,0,0,0,-3.3209,-3.321,0,-3.3255,-3.3256,-3.3256,-3.3238,-3.3236,-3.3235,-3.3234,-3.328,-3.3282,-3.3284,0,0,0,0,0,0,0,0,0,0,0,0,0,-3.3103,-3.3105,-3.3209,-3.321,-3.321,-3.3255,-3.3256,-3.3257,-3.3238,-3.3236,-3.3235,-3.3234,-3.3279,-3.3282,-3.3284,0,0,0,0,0,0,0,0,0,0,0,0,0,-3.3149,-3.3105,-3.3209,-3.3206,-3.3207,-3.3255,-3.3256,-3.3257,-3.3238,-3.3236,-3.3235,-3.3233,-3.3278,-3.3281,-3.3285,-3.3338,0,0,-3.3295,-3.3296,0,0,0,0,0,0,0,0,-3.3146,-3.3153,-3.3206,-3.3207,-3.3207,-3.3239,-3.3235,-3.3284,-3.3238,-3.3226,-3.3234,-3.3232,-3.3267,-3.3272,-3.3284,-3.334,-3.3342,-3.3295,-3.3297,-3.3299,-3.33,0,0,0,0,0,0,0,-3.3143,-3.3151,-3.3227,-3.3207,-3.3208,-3.3202,-3.3207,-3.3244,-3.3255,-3.3227,-3.3226,-3.3232,-3.3267,-3.3281,-3.3285,-3.3343,-3.3295,-3.3298,-3.33,-3.3301,-3.3444,-3.3446,0,0,0,0,0,0,-3.314,-3.3148,-3.3226,-3.3229,-3.3172,-3.3206,-3.3211,-3.323,-3.3255,-3.3257,-3.3233,-3.3231,-3.3276,-3.3281,-3.3286,-3.3349,-3.3299,-3.3302,-3.3304,-3.3442,-3.3444,-3.3446,0,0,0,0,0,0,-3.3138,-3.3147,-3.3224,-3.3188,-3.3198,-3.3209,-3.3231,-3.3232,-3.3245,-3.3259,-3.3261,-3.3245,-3.3275,-3.3282,-3.3325,-3.335,-3.3303,-3.3306,-3.344,-3.3443,-3.3445,-3.3475,0,0,0,0,0,0,-3.3135,-3.3147,-3.3167,-3.3189,-3.32,-3.3263,-3.3233,-3.3234,-3.3251,-3.3249,-3.3271,-3.3273,-3.3274,-3.332,-3.3328,-3.3354,-3.3309,-3.3438,-3.3441,-3.3444,-3.3472,-3.3479,-3.3484,0,0,0,0,0,-3.3131,-3.3174,-3.3168,-3.3178,-3.3226,-3.3264,-3.327,-3.3271,-3.3254,-3.3274,-3.3283,-3.3272,-3.3347,-3.3325,-3.3334,-3.3361,-3.3436,-3.344,-3.3444,-3.3469,-3.3477,-3.3484,0,0,0,0,0,0,-3.3154,-3.3177,-3.3171,-3.3222,-3.3242,-3.3261,-3.3287,-3.328,-3.3305,-3.3301,-3.3301,-3.3306,-3.335,-3.336,-3.3336,-3.3413,-3.3389,-3.3395,-3.3405,-3.3412,-3.3418,-3.3414,-3.3312,0,0,0,0,0,-3.3166,-3.3196,-3.3213,-3.3257,-3.3267,-3.3275,-3.3292,-3.3291,-3.3311,-3.3319,-3.3331,-3.335,-3.3378,-3.3396,-3.3422,-3.3474,-3.3478,-3.3497,-3.3503,-3.3508,-3.3513,-3.3539,-3.3548,-3.3459,-3.3459,-3.3459,0,0,-3.3189,-3.3205,-3.3223,-3.3262,-3.3277,-3.3307,-3.3282,-3.3316,-3.3337,-3.3324,-3.3365,-3.3375,-3.3397,-3.3444,-3.3466,-3.3454,-3.3538,-3.3513,-3.3517,-3.3519,-3.3544,-3.3553,-3.356,-3.3462,-3.3462,-3.3461,0,0,-3.3246,-3.3262,-3.3299,-3.3314,-3.3338,-3.3343,-3.3352,-3.3373,-3.3379,-3.3421,-3.3411,-3.3437,-3.3485,-3.35,-3.3514,-3.3578,-3.3568,-3.3586,-3.3617,-3.3643,-3.365,-3.3656,-3.3677,-3.3685,-3.3591,-3.3591,-3.3591,0,-3.3271,-3.3317,-3.3318,-3.3352,-3.3369,-3.3359,-3.3396,-3.3411,-3.3441,-3.3452,-3.3439,-3.3499,-3.3512,-3.3563,-3.3578,-3.359,-3.3599,-3.3583,-3.3649,-3.3655,-3.3661,-3.3681,-3.3689,-3.3593,-3.3593,-3.3593,-3.3593,0,-3.3346,-3.3378,-3.3405,-3.3434,-3.3454,-3.349,-3.3496,-3.3516,-3.3514,-3.352,-3.3562,-3.3579,-3.3608,-3.362,-3.3618,-3.367,-3.3662,-3.3649,-3.3624,-3.3671,-3.369,-3.3697,-3.3596,-3.3595,-3.3595,-3.3594,0,0,-3.3417,-3.3448,-3.3458,-3.347,-3.3496,-3.352,-3.3555,-3.3583,-3.3599,-3.3621,-3.3649,-3.369,-3.3678,-3.3694,-3.3694,-3.3717,-3.3764,-3.3702,-3.3702,-3.3711,-3.382,-3.3828,-3.3837,-3.3759,-3.376,-3.3761,-3.3818,0,-3.3474,-3.3535,-3.3538,-3.3593,-3.3621,-3.3613,-3.3643,-3.3661,-3.3668,-3.3693,-3.3701,-3.3729,-3.3713,-3.3722,-3.3745,-3.3754,-3.3786,-3.375,-3.3783,-3.3784,-3.3776,-3.3846,-3.3855,-3.3907,-3.3825,-3.3826,-3.3827,0,-3.3549,-3.3573,-3.3631,-3.3651,-3.3663,-3.369,-3.3716,-3.374,-3.3761,-3.3764,-3.3783,-3.3779,-3.3813,-3.3789,-3.3836,-3.3811,-3.3825,-3.3832,-3.3834,-3.3835,-3.3807,-3.3847,-3.3924,-3.3931,-3.3839,-3.3838,-3.3837,0,-3.3592,-3.3639,-3.368,-3.3691,-3.3717,-3.3736,-3.3747,-3.3766,-3.3783,-3.3806,-3.3816,-3.3843,-3.3857,-3.3878,-3.3881,-3.3863,-3.3927,-3.3903,-3.393,-3.393,-3.3942,-3.394,-3.4019,-3.3955,-3.3954,-3.3954,-3.3954,0,-3.3654,-3.369,-3.3699,-3.3724,-3.3763,-3.3766,-3.3804,-3.3814,-3.3831,-3.3856,-3.3852,-3.3875,-3.388,-3.3905,-3.3908,-3.3945,-3.3952,-3.3955,-3.3955,-3.3954,-3.3953,-3.3961,-3.3957,-3.3956,-3.3956,-3.3956,-3.3955,0,-3.3709,-3.3717,-3.376,-3.3781,-3.3787,-3.3814,-3.3832,-3.3855,-3.3862,-3.3894,-3.3902,-3.3913,-3.3942,-3.3948,-3.3983,-3.3985,-3.4028,-3.4026,-3.4021,-3.402,-3.4045,-3.4042,-3.413,-3.4141,-3.4072,-3.4072,-3.4073,0,-3.3747,-3.3773,-3.3797,-3.3814,-3.3827,-3.3854,-3.3871,-3.3876,-3.3894,-3.3919,-3.3939,-3.3967,-3.399,-3.4037,-3.4047,-3.4073,-3.407,-3.4099,-3.4074,-3.4072,-3.4068,-3.4065,-3.4067,-3.4103,-3.4104,-3.4104,-3.4105,0,-3.3813,-3.3815,-3.3841,-3.3868,-3.3888,-3.391,-3.393,-3.3944,-3.3951,-3.3971,-3.4001,-3.4019,-3.4054,-3.4082,-3.4108,-3.4119,-3.4112,-3.4113,-3.412,-3.4118,-3.4114,-3.4115,-3.4032,-3.4111,-3.411,-3.411,-3.4109,-3.4109,-3.3858,-3.3881,-3.3901,-3.393,-3.3945,-3.3964,-3.3987,-3.3997,-3.4022,-3.4051,-3.4052,-3.4084,-3.4103,-3.4138,-3.415,-3.4175,-3.4166,-3.4176,-3.4179,-3.4181,-3.4182,-3.4112,-3.418,-3.418,-3.418,-3.418,-3.418,0,-3.3922,-3.3935,-3.3961,-3.3989,-3.4011,-3.4005,-3.4027,-3.4045,-3.4074,-3.4093,-3.4115,-3.4149,-3.4176,-3.4189,-3.4216,-3.4233,-3.423,-3.4239,-3.4237,-3.4239,-3.419,-3.418,-3.424,-3.424,-3.424,-3.424,-3.424,-3.424,-3.3958,-3.3996,-3.4001,-3.4046,-3.4059,-3.409,-3.4103,-3.412,-3.4135,-3.4173,-3.4195,-3.4204,-3.422,-3.4248,-3.4272,-3.4275,-3.4284,-3.4294,-3.4296,-3.4249,-3.4243,-3.4237,-3.4227,-3.4297,-3.4297,-3.4343,-3.4343,-3.4343]},{"header":{"parameterUnit":"m.s-1","parameterCategory":1,"la1":30.2991,"la2":30.254,"lo1":-89.0895,"lo2":-89.0444,"dy":0.0017,"dx":0.0017,"nx":28,"ny":28,"refTime":"2026-01-09T09:00:00:Z","depth":0,"parameterNumber":3,"parameterNumberName":"V-component_of_WINDS"},"data":[0,0,0,0,0,0,0,0,0,0,0,0,0,0,0,0,0,0,0,0,0,0,0,0,0,0,0,0,0,0,0,0,0,0,0,0,0,0,0,0,0,0,0,0,0,0,0,0,0,0,0,0,0,0,0,0,0,0,2.2296,2.2297,0,2.2388,2.2389,2.239,2.2419,2.2418,2.2418,2.2417,2.251,2.2513,2.2516,0,0,0,0,0,0,0,0,0,0,0,0,0,2.2145,2.2148,2.2296,2.2297,2.2298,2.2388,2.2389,2.2391,2.2419,2.2418,2.2417,2.2417,2.251,2.2513,2.2516,0,0,0,0,0,0,0,0,0,0,0,0,0,2.2221,2.2149,2.2296,2.2323,2.2326,2.2388,2.2389,2.2391,2.2419,2.2418,2.2417,2.2417,2.2508,2.2513,2.2517,2.2558,0,0,2.253,2.2532,0,0,0,0,0,0,0,0,2.2217,2.2227,2.2318,2.2321,2.2325,2.2391,2.2371,2.2447,2.2419,2.2384,2.2417,2.2416,2.2471,2.2479,2.2497,2.2562,2.2566,2.2531,2.2533,2.2535,2.2536,0,0,0,0,0,0,0,2.2212,2.2223,2.2332,2.2319,2.2324,2.2331,2.2341,2.2385,2.243,2.2387,2.2389,2.24,2.2473,2.2493,2.25,2.2567,2.2531,2.2534,2.2537,2.2539,2.2674,2.2675,0,0,0,0,0,0,2.2202,2.2218,2.2329,2.2335,2.2268,2.2334,2.2346,2.2371,2.243,2.2438,2.24,2.24,2.2486,2.2495,2.2503,2.2557,2.2535,2.2539,2.2542,2.2673,2.2674,2.2675,0,0,0,0,0,0,2.2198,2.2211,2.2326,2.2278,2.2293,2.2338,2.2366,2.2373,2.2393,2.244,2.2448,2.2412,2.2486,2.2497,2.2545,2.2561,2.2541,2.2545,2.2672,2.2673,2.2675,2.2664,0,0,0,0,0,0,2.2194,2.221,2.2225,2.2278,2.2295,2.2365,2.2366,2.2375,2.2401,2.2402,2.2453,2.2461,2.2486,2.2538,2.2549,2.2567,2.2549,2.2671,2.2673,2.2674,2.2663,2.2665,2.2667,0,0,0,0,0,2.2188,2.2217,2.2226,2.2239,2.2315,2.2366,2.2376,2.2405,2.2402,2.2418,2.2449,2.246,2.2557,2.2543,2.2555,2.2574,2.267,2.2672,2.2674,2.2663,2.2665,2.2667,0,0,0,0,0,0,2.2164,2.2224,2.2234,2.2281,2.2318,2.2371,2.2392,2.2405,2.2444,2.2443,2.2477,2.2488,2.2534,2.2559,2.2542,2.2619,2.2614,2.2619,2.2601,2.2604,2.2605,2.2598,2.2552,0,0,0,0,0,2.2164,2.22,2.2251,2.2288,2.2306,2.2346,2.2369,2.2388,2.2428,2.2444,2.2478,2.2516,2.2556,2.2581,2.2619,2.2667,2.268,2.2687,2.2688,2.269,2.2693,2.2724,2.2728,2.2683,2.2682,2.2682,0,0,2.2164,2.2202,2.2222,2.2284,2.2315,2.2353,2.2359,2.2397,2.2426,2.2449,2.2497,2.2524,2.2569,2.2618,2.2641,2.264,2.2709,2.2692,2.2693,2.2696,2.2727,2.2731,2.2735,2.2684,2.2684,2.2683,0,0,2.2185,2.2216,2.2251,2.2283,2.2331,2.2358,2.2367,2.2418,2.2437,2.2486,2.2506,2.254,2.2607,2.264,2.2665,2.2702,2.2714,2.2714,2.2722,2.2752,2.2755,2.2759,2.2774,2.2779,2.2717,2.2717,2.2717,0,2.2179,2.2236,2.2267,2.2307,2.2334,2.2359,2.2396,2.2425,2.2483,2.2502,2.25,2.2587,2.2619,2.2677,2.2687,2.2706,2.2718,2.2708,2.2752,2.2756,2.276,2.2775,2.2781,2.2717,2.2717,2.2717,2.2717,0,2.2229,2.2268,2.2291,2.2349,2.2379,2.2416,2.2454,2.2481,2.2499,2.2527,2.2578,2.2618,2.2667,2.2682,2.2698,2.2744,2.2742,2.2746,2.2742,2.2763,2.2779,2.2784,2.2717,2.2717,2.2717,2.2717,0,0,2.2233,2.231,2.2318,2.2346,2.2403,2.2435,2.2475,2.2524,2.2548,2.2588,2.2623,2.2681,2.2687,2.2715,2.2736,2.2762,2.2792,2.2763,2.2765,2.2769,2.2848,2.2846,2.2852,2.2801,2.2802,2.2803,2.2845,0,2.2262,2.2335,2.2366,2.2425,2.2465,2.249,2.2526,2.2565,2.2593,2.2631,2.2661,2.2703,2.2705,2.2723,2.275,2.2783,2.2809,2.278,2.2836,2.2837,2.2825,2.286,2.2856,2.2894,2.2851,2.2852,2.2853,0,2.2305,2.2347,2.2411,2.2466,2.2484,2.2515,2.2565,2.26,2.2646,2.2665,2.2699,2.272,2.2765,2.2758,2.2821,2.2801,2.2826,2.2846,2.2849,2.2855,2.2847,2.2869,2.2907,2.2913,2.2862,2.2861,2.2861,0,2.2305,2.2378,2.2426,2.2449,2.2514,2.2536,2.2565,2.261,2.2639,2.2683,2.2702,2.275,2.2776,2.2813,2.2847,2.2839,2.2909,2.2904,2.2927,2.2926,2.294,2.2939,2.2984,2.2954,2.2954,2.2954,2.2954,0,2.2334,2.2372,2.2428,2.2457,2.2502,2.2539,2.2582,2.2612,2.2653,2.2691,2.2715,2.275,2.2792,2.2832,2.2858,2.2909,2.292,2.2937,2.2944,2.2936,2.2934,2.2953,2.2952,2.2955,2.2955,2.2955,2.2954,0,2.234,2.2379,2.2434,2.2493,2.2509,2.2539,2.259,2.2621,2.2652,2.2699,2.2712,2.2759,2.2809,2.2846,2.2909,2.2927,2.2981,2.2987,2.2966,2.297,2.2991,2.2989,2.3051,2.3062,2.3023,2.3023,2.3024,0,2.2357,2.2387,2.2451,2.2478,2.2507,2.255,2.2581,2.2619,2.265,2.2708,2.2732,2.2784,2.2827,2.2904,2.2945,2.2994,2.3003,2.3021,2.301,2.3002,2.3006,2.3004,2.3009,2.3023,2.3023,2.3023,2.3023,0,2.2382,2.2401,2.2445,2.2496,2.2533,2.2575,2.2617,2.2638,2.2684,2.2718,2.277,2.2804,2.287,2.2922,2.2976,2.3006,2.3023,2.3027,2.3035,2.3027,2.3014,2.3024,2.2972,2.3025,2.3025,2.3024,2.3024,2.3024,2.2396,2.2426,2.2476,2.2525,2.2562,2.2602,2.2635,2.2671,2.2715,2.2773,2.2793,2.2847,2.2896,2.2972,2.3003,2.3046,2.3046,2.3057,2.3061,2.3063,2.3064,2.3007,2.3056,2.3056,2.3056,2.3056,2.3056,0,2.2424,2.2459,2.2504,2.2564,2.2603,2.2618,2.2667,2.2699,2.2746,2.2791,2.2834,2.2895,2.2947,2.2993,2.3046,2.3073,2.3082,2.3086,2.3084,2.3092,2.3059,2.3048,2.3077,2.3077,2.3077,2.3077,2.3077,2.3077,2.2444,2.2496,2.2522,2.2594,2.2629,2.2683,2.271,2.2748,2.2785,2.2853,2.2896,2.2926,2.2973,2.3031,2.3079,2.3092,2.3111,2.3113,2.3127,2.3096,2.3093,2.3091,2.308,2.3116,2.3116,2.3157,2.3157,2.3157]}]]